G1OCN-WX Weather Reports


time (UTC)temp
F
wind
direction
speed
knots
gust
knots
rain 1hr
in
rain 24hr
in
rain mn
in
humidity
%
barometer
mb
20260502161241 52 105 8.7 10.4 0.00 0.41 0.41 91 1012.7
20260502161111 52 111 8.7 11.3 0.00 0.41 0.41 91 1012.7
20260502161011 52 115 10.4 11.3 0.00 0.41 0.41 91 1012.7
20260502160911 52 122 10.4 13.9 0.00 0.41 0.41 91 1012.8
20260502160811 52 120 8.7 12.2 0.00 0.41 0.41 91 1012.8
20260502160711 52 112 8.7 12.2 0.00 0.41 0.41 91 1012.8
20260502160541 52 126 10.4 12.2 0.00 0.41 0.41 91 1012.8
20260502160441 52 123 7.8 12.2 0.00 0.41 0.41 91 1012.8
20260502160311 52 121 8.7 10.4 0.00 0.41 0.41 91 1012.8
20260502160211 52 121 10.4 12.2 0.00 0.41 0.41 91 1012.7
20260502160111 52 123 10.4 11.3 0.00 0.41 0.41 91 1012.8
20260502152310 52 106 10.4 12.2 0.01 0.41 0.41 90 1013.1
20260502152210 52 106 7.8 12.2 0.01 0.41 0.41 90 1013.2
20260502152110 52 105 7.0 10.4 0.01 0.41 0.41 90 1013.1
20260502152010 52 121 7.0 10.4 0.01 0.41 0.41 90 1013.1
20260502151910 52 106 10.4 12.2 0.01 0.41 0.41 90 1013.1
20260502151810 52 116 10.4 13.0 0.01 0.41 0.41 90 1013.1
20260502151710 52 125 8.7 13.9 0.01 0.41 0.41 90 1013.2
20260502151610 52 105 10.4 13.0 0.01 0.41 0.41 90 1013.2
20260502151509 52 105 8.7 13.0 0.01 0.41 0.41 90 1013.2
20260502151409 52 117 10.4 13.0 0.01 0.41 0.41 90 1013.1
20260502151309 52 117 11.3 12.2 0.01 0.41 0.41 90 1013.1
20260502151209 52 114 10.4 13.9 0.01 0.41 0.41 90 1013.1
20260502151109 52 117 11.3 13.9 0.01 0.41 0.41 90 1013.1
20260502151009 52 104 12.2 15.6 0.02 0.41 0.41 90 1013.1
20260502150909 52 109 11.3 14.8 0.02 0.41 0.41 90 1013.1
20260502150809 52 108 11.3 13.0 0.03 0.41 0.41 90 1013.1
20260502150709 52 106 11.3 14.8 0.03 0.41 0.41 90 1013.1
20260502150609 52 108 12.2 13.9 0.03 0.41 0.41 90 1013.1
20260502150509 52 108 11.3 15.6 0.04 0.41 0.41 90 1013.0
20260502150409 52 99 11.3 13.0 0.04 0.41 0.41 91 1013.0
20260502150309 52 115 10.4 14.8 0.04 0.41 0.41 91 1013.0
20260502150209 52 115 10.4 12.2 0.04 0.41 0.41 90 1013.0
20260502150109 52 96 13.0 14.8 0.05 0.41 0.41 90 1013.0
20260502130700 53 133 8.7 13.9 0.14 0.15 0.15 89 1015.6
20260502130600 53 143 7.0 13.9 0.14 0.15 0.15 89 1015.7
20260502130500 53 148 7.8 10.4 0.13 0.14 0.14 88 1015.7
20260502130400 53 152 10.4 13.0 0.13 0.14 0.14 88 1015.8
20260502130300 53 163 11.3 14.8 0.12 0.13 0.13 88 1015.8
20260502130200 53 158 8.7 15.6 0.12 0.13 0.13 88 1015.9
20260502123758 53 85 5.2 6.1 0.02 0.03 0.03 88 1015.1
20260502123658 53 85 4.3 5.2 0.02 0.03 0.03 88 1015.1
20260502123558 53 84 5.2 7.0 0.02 0.03 0.03 88 1015.2
20260502123458 53 83 5.2 6.1 0.02 0.03 0.03 88 1015.2
20260502123357 53 86 5.2 7.0 0.02 0.03 0.03 88 1015.2
20260502123257 53 88 5.2 6.1 0.02 0.03 0.03 88 1015.3
20260502123157 53 87 6.1 7.8 0.02 0.03 0.03 88 1015.3
20260502123057 53 107 6.1 7.8 0.02 0.03 0.03 88 1015.4
20260502122957 53 111 7.0 8.7 0.02 0.03 0.03 88 1015.4
20260502122857 53 125 7.0 10.4 0.02 0.03 0.03 88 1015.4
20260502122757 53 124 5.2 8.7 0.02 0.03 0.03 89 1015.4
20260502122657 53 127 5.2 6.1 0.02 0.03 0.03 88 1015.4
20260502122557 53 126 5.2 7.0 0.02 0.03 0.03 88 1015.4
20260502122457 53 125 4.3 7.0 0.02 0.03 0.03 88 1015.5
20260502122357 53 109 5.2 6.1 0.02 0.03 0.03 88 1015.5
20260502122257 53 116 6.1 7.8 0.02 0.03 0.03 88 1015.4
20260502122157 53 116 5.2 7.8 0.01 0.02 0.02 88 1015.4
20260502122057 53 106 5.2 7.0 0.01 0.02 0.02 88 1015.4
20260502121957 53 105 6.1 7.0 0.01 0.02 0.02 88 1015.4
20260502121857 53 99 6.1 7.8 0.01 0.02 0.02 88 1015.4
20260502121756 53 110 6.1 7.0 0.01 0.02 0.02 88 1015.4
20260502121656 53 111 5.2 7.0 0.01 0.02 0.02 88 1015.5
20260502121556 53 99 6.1 6.1 0.01 0.02 0.02 88 1015.5
20260502121456 53 113 5.2 7.0 0.01 0.02 0.02 88 1015.5
20260502121356 53 106 6.1 6.1 0.01 0.02 0.02 88 1015.5
20260502121256 53 103 7.0 8.7 0.01 0.02 0.02 88 1015.5
20260502121156 53 106 7.0 8.7 0.01 0.02 0.02 88 1015.6
20260502121056 53 107 6.1 8.7 0.00 0.01 0.01 88 1015.6
20260502120956 53 105 6.1 8.7 0.00 0.01 0.01 88 1015.6
20260502120856 53 104 6.1 8.7 0.00 0.01 0.01 88 1015.7
20260502120756 53 105 7.0 7.8 0.00 0.01 0.01 88 1015.7
20260502120656 53 106 7.8 10.4 0.00 0.01 0.01 88 1015.7
20260502120556 53 116 7.0 8.7 0.00 0.01 0.01 88 1015.7
20260502120455 53 118 6.1 7.8 0.00 0.01 0.01 88 1015.8
20260502120355 53 112 7.0 7.8 0.00 0.01 0.01 88 1015.8
20260502120255 53 119 7.0 8.7 0.00 0.01 0.01 88 1015.8
20260502120155 53 109 7.0 7.8 0.00 0.01 0.01 88 1015.8
20260502115855 53 123 7.0 10.4 0.00 0.01 0.01 88 1015.8
20260502115755 53 108 7.8 10.4 0.00 0.01 0.01 88 1015.8
20260502115655 53 108 7.8 11.3 0.00 0.01 0.01 88 1015.8
20260502115555 53 109 7.8 10.4 0.00 0.01 0.01 88 1015.8
20260502115455 53 103 7.0 10.4 0.00 0.01 0.01 88 1015.8
20260502115355 53 110 8.7 10.4 0.00 0.01 0.01 88 1015.9
20260502115254 53 120 7.8 10.4 0.00 0.01 0.01 88 1015.9
20260502115154 53 122 7.8 10.4 0.00 0.01 0.01 88 1015.9
20260502115054 53 124 7.0 10.4 0.00 0.01 0.01 88 1015.9
20260502114954 53 120 7.8 10.4 0.00 0.01 0.01 87 1015.9
20260502114854 53 117 7.8 10.4 0.00 0.01 0.01 87 1016.0
20260502114754 53 114 7.0 10.4 0.00 0.01 0.01 87 1016.0
20260502114654 53 113 7.8 10.4 0.00 0.01 0.01 87 1016.0
20260502114554 53 115 8.7 10.4 0.00 0.01 0.01 87 1016.0
20260502114454 53 104 7.0 11.3 0.00 0.01 0.01 87 1016.0
20260502114354 53 123 8.7 10.4 0.00 0.01 0.01 87 1016.0
20260502114254 53 120 8.7 10.4 0.00 0.01 0.01 87 1016.1
20260502114154 53 121 7.8 10.4 0.00 0.01 0.01 87 1016.1
20260502114053 53 118 7.8 8.7 0.00 0.01 0.01 87 1016.1
20260502113953 53 121 8.7 10.4 0.00 0.01 0.01 86 1016.1
20260502113853 53 116 8.7 11.3 0.00 0.01 0.01 86 1016.1
20260502113753 53 119 8.7 11.3 0.00 0.01 0.01 86 1016.1
20260502113653 53 116 7.8 11.3 0.00 0.01 0.01 86 1016.1
20260502113553 53 126 7.8 10.4 0.00 0.01 0.01 86 1016.2
20260502113423 54 121 8.7 11.3 0.00 0.01 0.01 86 1016.1
20260502113323 54 125 7.0 11.3 0.00 0.01 0.01 86 1016.1
20260502113223 54 107 7.8 10.4 0.00 0.01 0.01 85 1016.1
20260502113123 54 104 7.8 10.4 0.00 0.01 0.01 85 1016.1
20260502113023 54 117 7.0 10.4 0.00 0.01 0.01 85 1016.1
20260502112923 54 111 7.0 8.7 0.00 0.01 0.01 85 1016.1
20260502112823 54 107 7.8 10.4 0.00 0.01 0.01 85 1016.2
20260502112723 54 122 7.8 10.4 0.00 0.01 0.01 85 1016.1
20260502112623 54 120 7.8 10.4 0.00 0.01 0.01 85 1016.2
20260502112523 54 115 7.0 10.4 0.00 0.01 0.01 85 1016.2
20260502112422 54 112 6.1 10.4 0.00 0.01 0.01 85 1016.2
20260502112322 54 113 7.0 8.7 0.00 0.01 0.01 85 1016.2
20260502112222 54 97 7.0 8.7 0.00 0.01 0.01 85 1016.2
20260502112122 54 83 7.8 10.4 0.00 0.01 0.01 84 1016.2
20260502112022 54 90 7.0 10.4 0.00 0.01 0.01 85 1016.2
20260502111922 54 95 7.0 10.4 0.00 0.01 0.01 84 1016.2
20260502111822 54 84 7.8 10.4 0.00 0.01 0.01 84 1016.2
20260502111722 54 82 7.8 10.4 0.00 0.01 0.01 85 1016.2
20260502111622 54 93 7.8 10.4 0.00 0.01 0.01 84 1016.2
20260502111522 54 83 7.8 10.4 0.00 0.01 0.01 85 1016.2
20260502111422 54 89 7.0 8.7 0.00 0.01 0.01 84 1016.3
20260502111322 54 89 7.0 10.4 0.00 0.01 0.01 84 1016.3
20260502111222 54 93 7.0 8.7 0.00 0.01 0.01 84 1016.4
20260502111121 54 103 7.8 10.4 0.00 0.01 0.01 84 1016.4
20260502111021 54 109 7.0 10.4 0.00 0.01 0.01 84 1016.5
20260502110921 54 109 7.8 10.4 0.00 0.01 0.01 84 1016.5
20260502110821 54 115 8.7 11.3 0.00 0.01 0.01 84 1016.5
20260502110721 54 127 8.7 11.3 0.00 0.01 0.01 84 1016.5
20260502110621 54 117 7.8 11.3 0.00 0.01 0.01 84 1016.5
20260502110521 54 124 7.8 10.4 0.00 0.01 0.01 84 1016.5
20260502110421 54 123 7.8 10.4 0.00 0.01 0.01 84 1016.5
20260502110321 54 118 7.8 10.4 0.00 0.01 0.01 84 1016.5
20260502110221 54 119 7.0 10.4 0.00 0.01 0.01 84 1016.5
20260502110121 54 100 7.0 10.4 0.00 0.01 0.01 84 1016.5
20260502110021 54 120 7.0 7.8 0.00 0.01 0.01 84 1016.6
20260502105920 54 118 7.0 10.4 0.00 0.01 0.01 85 1016.5
20260502105820 54 113 7.8 10.4 0.00 0.01 0.01 84 1016.6
20260502105720 54 107 7.8 10.4 0.00 0.01 0.01 85 1016.5
20260502105620 54 108 7.0 8.7 0.00 0.01 0.01 85 1016.5
20260502105520 54 98 7.0 10.4 0.00 0.01 0.01 85 1016.5
20260502105420 54 107 7.0 8.7 0.00 0.01 0.01 85 1016.5
20260502105320 54 125 7.8 10.4 0.00 0.01 0.01 85 1016.6
20260502105220 54 98 7.0 10.4 0.00 0.01 0.01 86 1016.6
20260502105120 54 109 7.0 8.7 0.00 0.01 0.01 86 1016.6
20260502104950 54 122 7.8 10.4 0.00 0.01 0.01 85 1016.6
20260502104850 54 114 8.7 11.3 0.00 0.01 0.01 85 1016.6
20260502104750 54 104 7.8 11.3 0.00 0.01 0.01 86 1016.6
20260502104650 54 114 8.7 10.4 0.00 0.01 0.01 85 1016.7
20260502104550 54 120 10.4 11.3 0.00 0.01 0.01 85 1016.7
20260502104450 54 105 8.7 11.3 0.00 0.01 0.01 85 1016.7
20260502104349 54 121 7.8 11.3 0.00 0.01 0.01 86 1016.7
20260502104249 54 124 7.8 11.3 0.00 0.01 0.01 86 1016.8
20260502104149 54 112 7.8 11.3 0.00 0.01 0.01 86 1016.8
20260502104049 54 115 7.0 8.7 0.00 0.01 0.01 86 1016.7
20260502103949 54 127 8.7 10.4 0.00 0.01 0.01 86 1016.8
20260502103849 54 121 7.8 10.4 0.00 0.01 0.01 86 1016.7
20260502103749 54 121 7.0 10.4 0.00 0.01 0.01 86 1016.7
20260502103649 54 121 6.1 10.4 0.00 0.01 0.01 87 1016.8
20260502103549 54 124 7.0 7.8 0.00 0.01 0.01 87 1016.8
20260502103449 54 112 7.0 10.4 0.00 0.01 0.01 86 1016.8
20260502103319 54 99 7.0 10.4 0.00 0.01 0.01 86 1016.8
20260502103219 54 113 7.8 10.4 0.00 0.01 0.01 86 1016.8
20260502103119 54 111 7.0 10.4 0.00 0.01 0.01 87 1016.8
20260502103019 54 119 6.1 10.4 0.00 0.01 0.01 87 1016.8
20260502102919 54 108 6.1 8.7 0.00 0.01 0.01 87 1016.8
20260502102819 54 103 6.1 8.7 0.00 0.01 0.01 87 1016.8
20260502102718 54 101 6.1 7.8 0.00 0.01 0.01 88 1016.8
20260502102618 54 92 6.1 6.1 0.00 0.01 0.01 88 1016.8
20260502102518 54 94 6.1 7.8 0.00 0.01 0.01 88 1016.8
20260502102418 54 90 6.1 7.8 0.00 0.01 0.01 88 1016.8
20260502102318 54 113 6.1 6.1 0.00 0.01 0.01 88 1016.8
20260502102218 54 127 7.0 10.4 0.00 0.01 0.01 88 1016.9
20260502102048 54 105 7.8 8.7 0.00 0.01 0.01 87 1016.9
20260502101948 54 119 7.0 10.4 0.00 0.01 0.01 88 1016.9
20260502101848 54 106 7.0 7.8 0.00 0.01 0.01 88 1016.9
20260502101748 54 121 6.1 10.4 0.00 0.01 0.01 88 1016.9
20260502101648 53 112 6.1 7.8 0.00 0.01 0.01 88 1016.9
20260502101548 53 103 7.0 7.8 0.00 0.01 0.01 88 1016.9
20260502101448 53 102 7.8 8.7 0.00 0.01 0.01 88 1016.9
20260502101348 53 101 7.0 10.4 0.00 0.01 0.01 88 1016.9
20260502101247 53 96 6.1 8.7 0.00 0.01 0.01 88 1016.9
20260502101147 53 98 7.0 10.4 0.00 0.01 0.01 88 1017.0
20260502101047 53 107 7.8 11.3 0.00 0.01 0.01 88 1017.0
20260502100947 53 119 7.8 11.3 0.00 0.01 0.01 88 1016.9
20260502100847 53 120 6.1 7.8 0.00 0.01 0.01 88 1017.0
20260502100747 53 107 7.8 8.7 0.00 0.01 0.01 88 1017.0
20260502100647 53 94 7.8 10.4 0.00 0.01 0.01 89 1017.0
20260502100547 53 101 6.1 10.4 0.00 0.01 0.01 89 1017.1
20260502100447 53 118 6.1 8.7 0.00 0.01 0.01 89 1017.1
20260502100347 53 116 7.0 7.8 0.00 0.01 0.01 88 1017.1
20260502100247 53 108 7.8 10.4 0.00 0.01 0.01 89 1017.1
20260502100147 53 91 6.1 10.4 0.00 0.01 0.01 89 1017.1
20260502091443 53 118 6.1 10.4 0.00 0.01 0.01 90 1017.6
20260502091343 53 120 7.0 8.7 0.00 0.01 0.01 90 1017.7
20260502091243 53 115 7.0 8.7 0.00 0.01 0.01 90 1017.7
20260502091143 53 101 7.0 10.4 0.00 0.01 0.01 91 1017.7
20260502091043 53 110 6.1 10.4 0.00 0.01 0.01 91 1017.7
20260502090943 53 121 6.1 7.8 0.00 0.01 0.01 90 1017.7
20260502090843 53 135 6.1 7.0 0.00 0.01 0.01 90 1017.7
20260502090742 53 130 6.1 7.8 0.00 0.01 0.01 90 1017.7
20260502090642 53 112 7.0 7.8 0.00 0.01 0.01 91 1017.8
20260502090542 53 124 7.0 8.7 0.00 0.01 0.01 90 1017.8
20260502090442 53 101 7.0 7.8 0.00 0.01 0.01 90 1017.9
20260502090342 53 98 6.1 8.7 0.00 0.01 0.01 91 1017.9
20260502090242 53 122 6.1 7.0 0.00 0.01 0.01 90 1017.8
20260502090142 53 106 5.2 8.7 0.00 0.01 0.01 90 1017.9
20260502071535 51 111 7.0 7.8 0.00 0.01 0.01 91 1018.5
20260502071435 51 118 6.1 7.8 0.00 0.01 0.01 91 1018.5
20260502071334 51 102 6.1 7.0 0.00 0.01 0.01 92 1018.5
20260502071234 51 116 5.2 8.7 0.00 0.01 0.01 92 1018.4
20260502071134 51 120 6.1 7.0 0.00 0.01 0.01 91 1018.4
20260502071034 51 118 7.0 8.7 0.00 0.01 0.01 91 1018.4
20260502070934 51 116 6.1 7.8 0.00 0.01 0.01 92 1018.4
20260502070834 51 102 5.2 7.8 0.00 0.01 0.01 92 1018.4
20260502070734 51 91 4.3 7.0 0.00 0.01 0.01 92 1018.4
20260502070634 51 97 6.1 7.0 0.00 0.01 0.01 91 1018.4
20260502070534 51 105 6.1 8.7 0.00 0.01 0.01 91 1018.4
20260502070434 51 95 6.1 7.8 0.00 0.01 0.01 91 1018.4
20260502070334 51 97 7.0 7.0 0.00 0.01 0.01 91 1018.4
20260502070234 51 107 7.0 8.7 0.00 0.01 0.01 92 1018.4
20260502070134 51 113 6.1 7.8 0.00 0.01 0.01 92 1018.5
20260502070034 51 124 5.2 8.7 0.00 0.01 0.01 92 1018.4
20260502065934 51 108 5.2 6.1 0.00 0.01 0.01 92 1018.4
20260502065834 51 89 6.1 7.0 0.00 0.01 0.01 92 1018.4
20260502065733 51 109 6.1 7.8 0.00 0.01 0.01 92 1018.4
20260502065603 51 113 6.1 7.8 0.00 0.01 0.01 92 1018.4
20260502065503 51 114 6.1 7.0 0.00 0.01 0.01 92 1018.5
20260502065403 51 109 5.2 7.8 0.00 0.01 0.01 92 1018.5
20260502065306 51 102 5.2 6.1 0.00 0.01 0.01 92 1018.5
20260502065203 51 96 5.2 6.1 0.00 0.01 0.01 92 1018.6
20260502065103 51 95 5.2 7.0 0.00 0.01 0.01 92 1018.6
20260502065003 51 90 4.3 6.1 0.00 0.01 0.01 92 1018.7
20260502064903 51 105 4.3 5.2 0.00 0.01 0.01 92 1018.6
20260502064803 51 99 4.3 5.2 0.00 0.01 0.01 92 1018.7
20260502064703 51 97 4.3 5.2 0.00 0.01 0.01 92 1018.7
20260502064603 51 93 5.2 6.1 0.00 0.01 0.01 92 1018.6
20260502064503 51 104 5.2 7.0 0.00 0.01 0.01 92 1018.6
20260502064403 51 105 2.6 7.0 0.00 0.01 0.01 92 1018.6
20260502064303 51 89 4.3 5.2 0.01 0.01 0.01 92 1018.6
20260502064203 51 93 4.3 4.3 0.01 0.01 0.01 92 1018.6
20260502064103 51 81 4.3 5.2 0.01 0.01 0.01 92 1018.6
20260502063933 51 103 2.6 4.3 0.01 0.01 0.01 92 1018.6
20260502063832 51 84 4.3 5.2 0.01 0.01 0.01 92 1018.6
20260502063732 51 81 2.6 5.2 0.01 0.01 0.01 91 1018.6
20260502063632 51 92 4.3 4.3 0.01 0.01 0.01 91 1018.6
20260502063532 51 89 2.6 5.2 0.01 0.01 0.01 91 1018.7
20260502063432 51 102 2.6 4.3 0.01 0.01 0.01 92 1018.7
20260502063332 51 105 2.6 4.3 0.01 0.01 0.01 92 1018.7
20260502063232 51 121 2.6 2.6 0.01 0.01 0.01 92 1018.7
20260502063132 51 125 2.6 2.6 0.01 0.01 0.01 92 1018.7
20260502063032 51 127 2.6 4.3 0.01 0.01 0.01 92 1018.7
20260502062932 51 126 4.3 4.3 0.01 0.01 0.01 92 1018.7
20260502062832 51 124 4.3 4.3 0.01 0.01 0.01 92 1018.7
20260502062732 51 123 4.3 5.2 0.01 0.01 0.01 92 1018.7
20260502062632 51 126 4.3 4.3 0.01 0.01 0.01 92 1018.6
20260502062532 51 130 2.6 5.2 0.01 0.01 0.01 92 1018.6
20260502062432 51 122 2.6 4.3 0.01 0.01 0.01 92 1018.7
20260502062332 51 126 2.6 4.3 0.01 0.01 0.01 92 1018.6
20260502062232 51 125 2.6 4.3 0.01 0.01 0.01 92 1018.6
20260502062131 50 119 1.7 2.6 0.01 0.01 0.01 92 1018.6
20260502062031 50 113 1.7 1.7 0.01 0.01 0.01 92 1018.6
20260502061931 50 107 1.7 2.6 0.01 0.01 0.01 92 1018.6
20260502061831 50 103 1.7 2.6 0.01 0.01 0.01 92 1018.6
20260502061731 50 88 1.7 2.6 0.01 0.01 0.01 92 1018.6
20260502061631 50 101 1.7 2.6 0.01 0.01 0.01 92 1018.6
20260502061531 50 109 1.7 2.6 0.01 0.01 0.01 92 1018.6
20260502061431 50 96 0.9 1.7 0.01 0.01 0.01 92 1018.6
20260502061331 50 93 1.7 2.6 0.01 0.01 0.01 92 1018.7
20260502061231 50 89 0.9 2.6 0.01 0.01 0.01 92 1018.6
20260502061131 50 125 0.9 1.7 0.01 0.01 0.01 92 1018.7
20260502061031 50 149 0.9 1.7 0.01 0.01 0.01 92 1018.7
20260502060931 50 146 0.9 0.9 0.01 0.01 0.01 92 1018.7
20260502060830 50 156 0.9 0.9 0.01 0.01 0.01 92 1018.7
20260502060730 50 150 1.7 1.7 0.01 0.01 0.01 92 1018.7
20260502060630 50 135 1.7 1.7 0.01 0.01 0.01 92 1018.7
20260502060530 50 138 0.9 1.7 0.01 0.01 0.01 92 1018.7
20260502060430 50 134 0.9 1.7 0.01 0.01 0.01 92 1018.6
20260502060330 50 89 1.7 2.6 0.01 0.01 0.01 92 1018.7
20260502060230 50 103 0.9 2.6 0.01 0.01 0.01 92 1018.6
20260502060130 50 122 1.7 1.7 0.01 0.01 0.01 91 1018.6
20260502060030 50 97 1.7 2.6 0.01 0.01 0.01 91 1018.5
20260502055930 50 98 1.7 2.6 0.01 0.01 0.01 91 1018.5
20260502055830 50 100 0.9 2.6 0.01 0.01 0.01 91 1018.5
20260502055730 50 95 0.9 1.7 0.01 0.01 0.01 91 1018.5
20260502055629 50 83 0.9 0.9 0.01 0.01 0.01 91 1018.5
20260502055529 50 126 0.9 1.7 0.01 0.01 0.01 91 1018.6
20260502055429 50 141 0.0 1.7 0.01 0.01 0.01 91 1018.6
20260502055329 50 137 0.0 0.9 0.01 0.01 0.01 91 1018.6
20260502055229 50 117 0.9 0.9 0.01 0.01 0.01 91 1018.5
20260502055129 50 113 0.9 1.7 0.01 0.01 0.01 91 1018.6
20260502055029 50 123 0.0 1.7 0.01 0.01 0.01 91 1018.5
20260502054929 50 73 0.0 0.9 0.01 0.01 0.01 91 1018.5
20260502054829 50 73 0.9 0.9 0.01 0.01 0.01 91 1018.5
20260502054729 50 69 1.7 1.7 0.01 0.01 0.01 91 1018.4
20260502054629 50 71 1.7 2.6 0.01 0.01 0.01 91 1018.5
20260502054529 50 71 2.6 2.6 0.01 0.01 0.01 91 1018.5
20260502054429 50 65 1.7 2.6 0.01 0.01 0.01 91 1018.5
20260502054329 50 73 1.7 1.7 0.00 0.00 0.00 91 1018.5
20260502054229 50 68 1.7 2.6 0.00 0.00 0.00 91 1018.5
20260502054129 50 66 1.7 2.6 0.00 0.00 0.00 91 1018.5
20260502054028 50 66 1.7 2.6 0.00 0.00 0.00 91 1018.5
20260502053928 50 66 1.7 2.6 0.00 0.00 0.00 91 1018.5
20260502053828 50 73 1.7 2.6 0.00 0.00 0.00 91 1018.5
20260502053728 50 65 1.7 2.6 0.00 0.00 0.00 91 1018.5
20260502053628 50 68 1.7 2.6 0.00 0.00 0.00 91 1018.5
20260502053529 50 66 1.7 2.6 0.00 0.00 0.00 91 1018.5
20260502053428 50 65 1.7 2.6 0.00 0.00 0.00 91 1018.6
20260502053328 50 79 0.9 1.7 0.00 0.00 0.00 91 1018.6
20260502053228 50 84 1.7 2.6 0.00 0.00 0.00 91 1018.6
20260502053128 50 99 0.9 2.6 0.00 0.00 0.00 91 1018.7
20260502053028 50 108 1.7 1.7 0.00 0.00 0.00 91 1018.7
20260502052928 50 96 0.9 2.6 0.00 0.00 0.00 91 1018.7
20260502052828 50 98 0.9 1.7 0.00 0.00 0.00 91 1018.7
20260502052658 50 99 1.7 2.6 0.00 0.00 0.00 91 1018.8
20260502052558 50 111 0.9 2.6 0.00 0.00 0.00 91 1018.8
20260502052458 50 121 0.9 1.7 0.00 0.00 0.00 91 1018.8
20260502052358 50 130 0.9 1.7 0.00 0.00 0.00 91 1018.8
20260502052258 50 132 1.7 1.7 0.00 0.00 0.00 91 1018.8
20260502052157 50 125 0.9 1.7 0.00 0.00 0.00 91 1018.8
20260502052057 50 123 0.9 1.7 0.00 0.00 0.00 91 1018.8
20260502051957 50 118 0.9 0.9 0.00 0.00 0.00 91 1018.7
20260502051857 50 114 0.9 1.7 0.00 0.00 0.00 92 1018.8
20260502051757 50 101 0.9 1.7 0.00 0.00 0.00 91 1018.7
20260502051657 50 107 0.9 1.7 0.00 0.00 0.00 91 1018.7
20260502051557 50 102 0.9 1.7 0.00 0.00 0.00 91 1018.7
20260502051457 50 120 0.0 0.9 0.00 0.00 0.00 91 1018.7
20260502051357 50 122 0.9 0.9 0.00 0.00 0.00 91 1018.7
20260502051257 50 126 0.9 0.9 0.00 0.00 0.00 91 1018.7
20260502051157 50 131 0.9 0.9 0.00 0.00 0.00 91 1018.8
20260502051057 50 121 0.9 0.9 0.00 0.00 0.00 91 1018.8
20260502050957 50 119 0.9 0.9 0.00 0.00 0.00 91 1018.8
20260502050857 50 128 0.0 0.9 0.00 0.00 0.00 91 1018.8
20260502050757 50 134 0.9 0.9 0.00 0.00 0.00 91 1018.8
20260502050657 50 146 0.9 0.9 0.00 0.00 0.00 91 1018.8
20260502050557 50 152 0.9 0.9 0.00 0.00 0.00 91 1018.9
20260502050457 50 152 0.9 0.9 0.00 0.00 0.00 91 1018.8
20260502050356 50 152 0.9 0.9 0.00 0.00 0.00 91 1018.8
20260502050256 50 143 0.0 0.9 0.00 0.00 0.00 91 1018.9
20260502050156 50 103 0.0 0.9 0.00 0.00 0.00 91 1018.8
20260502050056 50 103 0.0 0.0 0.00 0.00 0.00 91 1018.8
20260502045956 50 103 0.0 0.9 0.00 0.00 0.00 91 1018.8
20260502045856 50 103 0.0 0.9 0.00 0.00 0.00 91 1018.7
20260502045726 50 103 0.9 0.9 0.00 0.00 0.00 91 1018.7
20260502045626 50 99 0.9 1.7 0.00 0.00 0.00 91 1018.7
20260502045526 50 78 1.7 2.6 0.00 0.00 0.00 91 1018.6
20260502045426 50 78 1.7 2.6 0.00 0.00 0.00 91 1018.6
20260502045326 50 88 1.7 1.7 0.00 0.00 0.00 91 1018.6
20260502045226 50 86 1.7 1.7 0.00 0.00 0.00 91 1018.6
20260502045125 50 91 0.9 1.7 0.00 0.00 0.00 91 1018.6
20260502045025 50 90 0.9 1.7 0.00 0.00 0.00 91 1018.7
20260502044925 50 102 0.9 1.7 0.00 0.00 0.00 91 1018.6
20260502044825 50 118 0.9 1.7 0.00 0.00 0.00 91 1018.7
20260502044725 50 113 1.7 1.7 0.00 0.00 0.00 91 1018.7
20260502044625 50 91 1.7 2.6 0.00 0.00 0.00 91 1018.7
20260502044525 50 98 0.9 1.7 0.00 0.00 0.00 91 1018.7
20260502044425 50 108 0.9 1.7 0.00 0.00 0.00 91 1018.6
20260502044325 50 106 0.9 1.7 0.00 0.00 0.00 91 1018.7
20260502044225 50 108 0.9 0.9 0.00 0.00 0.00 91 1018.7
20260502044125 50 113 0.9 1.7 0.00 0.00 0.00 91 1018.7
20260502044025 50 113 0.9 1.7 0.00 0.00 0.00 91 1018.7
20260502043925 50 117 1.7 1.7 0.00 0.00 0.00 91 1018.7
20260502043825 50 105 1.7 2.6 0.00 0.00 0.00 91 1018.7
20260502043724 50 104 0.9 1.7 0.00 0.00 0.00 91 1018.7
20260502043624 50 115 0.9 1.7 0.00 0.00 0.00 91 1018.7
20260502043524 50 123 1.7 1.7 0.00 0.00 0.00 91 1018.7
20260502043424 50 104 1.7 2.6 0.00 0.00 0.00 91 1018.7
20260502043324 50 90 1.7 2.6 0.00 0.00 0.00 91 1018.7
20260502043224 50 89 1.7 1.7 0.00 0.00 0.00 91 1018.7
20260502043124 50 84 1.7 2.6 0.00 0.00 0.00 91 1018.6
20260502043024 50 77 1.7 2.6 0.00 0.00 0.00 90 1018.6
20260502042924 50 77 0.9 1.7 0.00 0.00 0.00 91 1018.6
20260502042824 50 78 0.9 1.7 0.00 0.00 0.00 91 1018.6
20260502042724 50 78 1.7 1.7 0.00 0.00 0.00 91 1018.7
20260502042624 50 73 1.7 2.6 0.00 0.00 0.00 91 1018.7
20260502042524 50 73 1.7 1.7 0.00 0.00 0.00 91 1018.7
20260502042424 50 73 1.7 1.7 0.00 0.00 0.00 91 1018.7
20260502042323 50 74 1.7 2.6 0.00 0.00 0.00 91 1018.7
20260502042223 50 78 1.7 2.6 0.00 0.00 0.00 91 1018.7
20260502042123 50 96 1.7 2.6 0.00 0.00 0.00 91 1018.7
20260502042023 50 92 2.6 2.6 0.00 0.00 0.00 91 1018.7
20260502041923 50 88 1.7 2.6 0.00 0.00 0.00 91 1018.7
20260502041823 50 91 1.7 1.7 0.00 0.00 0.00 91 1018.7
20260502041723 50 91 1.7 1.7 0.00 0.00 0.00 91 1018.7
20260502041623 50 86 1.7 1.7 0.00 0.00 0.00 91 1018.8
20260502041523 50 86 0.9 1.7 0.00 0.00 0.00 91 1018.8
20260502041423 50 83 0.9 1.7 0.00 0.00 0.00 91 1018.8
20260502041322 50 79 0.9 1.7 0.00 0.00 0.00 91 1018.8
20260502041152 50 79 0.9 0.9 0.00 0.00 0.00 91 1018.9
20260502041052 50 81 1.7 1.7 0.00 0.00 0.00 91 1018.8
20260502040952 50 80 1.7 2.6 0.00 0.00 0.00 91 1018.9
20260502040852 50 85 1.7 2.6 0.00 0.00 0.00 91 1018.8
20260502040752 50 88 1.7 2.6 0.00 0.00 0.00 91 1018.8
20260502040652 50 81 1.7 2.6 0.00 0.00 0.00 91 1018.8
20260502040552 50 87 1.7 1.7 0.00 0.00 0.00 91 1018.8
20260502040452 50 87 1.7 2.6 0.00 0.00 0.00 91 1018.8
20260502040352 50 91 0.9 1.7 0.00 0.00 0.00 91 1018.8
20260502040252 50 95 0.9 1.7 0.00 0.00 0.00 91 1018.8
20260502040152 50 97 0.9 1.7 0.00 0.00 0.00 91 1018.8
20260502040052 50 117 0.9 1.7 0.00 0.00 0.00 91 1018.8
20260502035952 50 106 0.9 1.7 0.00 0.00 0.00 91 1018.8
20260502035851 50 111 0.9 0.9 0.00 0.00 0.00 91 1018.8
20260502035722 50 107 0.9 0.9 0.00 0.00 0.00 90 1018.8
20260502035621 50 54 0.0 0.9 0.00 0.00 0.00 91 1018.8
20260502035521 50 53 0.0 0.9 0.00 0.00 0.00 91 1018.8
20260502035421 50 53 0.0 0.9 0.00 0.00 0.00 91 1018.8
20260502035321 50 53 0.9 0.9 0.00 0.00 0.00 91 1018.8
20260502035221 50 53 0.9 1.7 0.00 0.00 0.00 91 1018.8
20260502035121 50 52 0.9 1.7 0.00 0.00 0.00 91 1018.9
20260502035021 50 51 0.9 1.7 0.00 0.00 0.00 90 1018.8
20260502034921 50 58 0.9 1.7 0.00 0.00 0.00 90 1018.8
20260502034751 50 76 0.9 1.7 0.00 0.00 0.00 90 1018.8
20260502034651 50 80 0.9 0.9 0.00 0.00 0.00 90 1018.8
20260502034551 50 86 0.9 1.7 0.00 0.00 0.00 90 1018.9
20260502034451 50 108 0.9 1.7 0.00 0.00 0.00 91 1018.8
20260502034351 50 96 0.9 2.6 0.00 0.00 0.00 90 1018.9
20260502034251 50 97 0.9 1.7 0.00 0.00 0.00 90 1018.8
20260502034150 50 95 0.9 0.9 0.00 0.00 0.00 90 1018.8
20260502034050 50 84 0.9 0.9 0.00 0.00 0.00 90 1018.8
20260502033950 50 84 0.9 1.7 0.00 0.00 0.00 90 1018.8
20260502033850 50 84 1.7 1.7 0.00 0.00 0.00 90 1018.8
20260502033750 50 94 0.9 1.7 0.00 0.00 0.00 90 1018.8
20260502033650 50 98 0.9 0.9 0.00 0.00 0.00 90 1018.8
20260502033550 50 98 0.9 0.9 0.00 0.00 0.00 91 1018.9
20260502033450 50 99 0.9 0.9 0.00 0.00 0.00 91 1018.9
20260502033350 50 99 0.9 1.7 0.00 0.00 0.00 91 1018.9
20260502033250 50 102 0.9 1.7 0.00 0.00 0.00 91 1019.0
20260502033150 50 102 0.9 1.7 0.00 0.00 0.00 91 1019.0
20260502033050 50 110 0.9 1.7 0.00 0.00 0.00 91 1019.0
20260502032949 50 122 0.9 1.7 0.00 0.00 0.00 91 1019.0
20260502032849 50 133 0.9 1.7 0.00 0.00 0.00 91 1019.0
20260502032749 50 133 0.9 1.7 0.00 0.00 0.00 91 1019.0
20260502032649 50 135 0.9 1.7 0.00 0.00 0.00 91 1019.0
20260502032549 50 137 0.9 1.7 0.00 0.00 0.00 91 1019.0
20260502032449 50 141 0.9 0.9 0.00 0.00 0.00 91 1019.1
20260502032349 50 144 0.9 1.7 0.00 0.00 0.00 90 1019.1
20260502032249 50 149 0.9 1.7 0.00 0.00 0.00 90 1019.1
20260502032149 50 154 0.9 1.7 0.00 0.00 0.00 90 1019.1
20260502032049 50 168 0.9 1.7 0.00 0.00 0.00 90 1019.1
20260502031949 50 164 1.7 1.7 0.00 0.00 0.00 90 1019.2
20260502031849 50 152 0.9 1.7 0.00 0.00 0.00 90 1019.2
20260502031748 50 154 1.7 1.7 0.00 0.00 0.00 90 1019.2
20260502031648 50 155 0.9 1.7 0.00 0.00 0.00 90 1019.2
20260502031548 50 157 0.9 1.7 0.00 0.00 0.00 91 1019.1
20260502031448 50 147 0.9 0.9 0.00 0.00 0.00 91 1019.1
20260502031348 50 141 0.9 0.9 0.00 0.00 0.00 91 1019.2
20260502031248 50 138 0.9 0.9 0.00 0.00 0.00 91 1019.1
20260502031118 50 136 0.9 0.9 0.00 0.00 0.00 91 1019.1
20260502031018 50 109 0.9 1.7 0.00 0.00 0.00 91 1019.1
20260502030848 50 77 1.7 1.7 0.00 0.00 0.00 91 1019.1
20260502030748 50 72 1.7 2.6 0.00 0.00 0.00 91 1019.1
20260502030648 50 77 1.7 1.7 0.00 0.00 0.00 91 1019.1
20260502030548 50 67 1.7 2.6 0.00 0.00 0.00 91 1019.1
20260502030448 50 67 1.7 2.6 0.00 0.00 0.00 91 1019.1
20260502030348 50 64 1.7 2.6 0.00 0.00 0.00 91 1019.1
20260502030247 50 63 1.7 2.6 0.00 0.00 0.00 91 1019.1
20260502030147 50 62 1.7 2.6 0.00 0.00 0.00 91 1019.1
20260502030047 50 61 2.6 2.6 0.00 0.00 0.00 91 1019.1
20260502025947 50 60 1.7 2.6 0.00 0.00 0.00 91 1019.1
20260502025847 50 59 2.6 2.6 0.00 0.00 0.00 91 1019.1
20260502025747 50 56 2.6 2.6 0.00 0.00 0.00 91 1019.1
20260502025617 50 62 1.7 2.6 0.00 0.00 0.00 91 1019.1
20260502025517 50 61 2.6 2.6 0.00 0.00 0.00 91 1019.1
20260502025417 50 60 2.6 2.6 0.00 0.00 0.00 91 1019.1
20260502025317 50 58 2.6 2.6 0.00 0.00 0.00 91 1019.1
20260502025217 50 56 2.6 2.6 0.00 0.00 0.00 91 1019.1
20260502025117 50 57 1.7 4.3 0.00 0.00 0.00 91 1019.1
20260502025017 51 65 0.9 2.6 0.00 0.00 0.00 91 1019.1
20260502024917 51 67 0.9 1.7 0.00 0.00 0.00 91 1019.0
20260502024817 51 68 1.7 2.6 0.00 0.00 0.00 91 1019.1
20260502024716 51 49 1.7 2.6 0.00 0.00 0.00 91 1019.1
20260502024616 51 43 1.7 1.7 0.00 0.00 0.00 91 1019.1
20260502024516 51 31 2.6 2.6 0.00 0.00 0.00 91 1019.1
20260502024416 51 23 2.6 2.6 0.00 0.00 0.00 91 1019.1
20260502024316 51 31 1.7 2.6 0.00 0.00 0.00 91 1019.1
20260502024216 51 22 1.7 2.6 0.00 0.00 0.00 91 1019.1
20260502024116 51 12 2.6 2.6 0.00 0.00 0.00 91 1019.1
20260502024016 51 358 2.6 2.6 0.00 0.00 0.00 91 1019.1
20260502023916 51 339 2.6 2.6 0.00 0.00 0.00 91 1019.1
20260502023816 51 340 2.6 2.6 0.00 0.00 0.00 91 1019.1
20260502023716 51 320 1.7 2.6 0.00 0.00 0.00 91 1019.1
20260502023616 51 357 1.7 2.6 0.00 0.00 0.00 91 1019.1
20260502023516 51 36 2.6 2.6 0.00 0.00 0.00 91 1019.2
20260502023416 51 27 2.6 2.6 0.00 0.00 0.00 91 1019.1
20260502023316 51 45 4.3 4.3 0.00 0.00 0.00 91 1019.1
20260502023146 51 49 5.2 6.1 0.00 0.00 0.00 91 1019.2
20260502023046 51 46 5.2 6.1 0.00 0.00 0.00 91 1019.2
20260502022946 51 41 4.3 5.2 0.00 0.00 0.00 91 1019.2
20260502022845 51 26 2.6 4.3 0.00 0.00 0.00 91 1019.2
20260502022745 51 16 2.6 2.6 0.00 0.00 0.00 91 1019.2
20260502022645 51 8 2.6 2.6 0.00 0.00 0.00 91 1019.2
20260502022545 51 10 1.7 2.6 0.00 0.00 0.00 91 1019.3
20260502022445 51 9 1.7 2.6 0.00 0.00 0.00 91 1019.3
20260502022345 51 27 2.6 2.6 0.00 0.00 0.00 91 1019.3
20260502022245 51 12 1.7 2.6 0.00 0.00 0.00 91 1019.4
20260502022145 51 33 1.7 2.6 0.00 0.00 0.00 91 1019.3
20260502022045 51 36 2.6 2.6 0.00 0.00 0.00 91 1019.4
20260502021945 51 25 1.7 2.6 0.00 0.00 0.00 91 1019.4
20260502021845 51 352 1.7 2.6 0.00 0.00 0.00 91 1019.4
20260502021745 51 34 1.7 2.6 0.00 0.00 0.00 91 1019.4
20260502021645 51 54 1.7 2.6 0.00 0.00 0.00 91 1019.5
20260502021544 51 54 1.7 1.7 0.00 0.00 0.00 91 1019.5
20260502021444 51 54 1.7 2.6 0.00 0.00 0.00 91 1019.5
20260502021344 51 51 1.7 1.7 0.00 0.00 0.00 91 1019.5
20260502021244 51 38 1.7 2.6 0.00 0.00 0.00 91 1019.5
20260502021144 51 40 1.7 2.6 0.00 0.00 0.00 91 1019.5
20260502021044 52 43 1.7 2.6 0.00 0.00 0.00 91 1019.6
20260502020944 52 35 1.7 2.6 0.00 0.00 0.00 91 1019.6
20260502020844 52 26 1.7 2.6 0.00 0.00 0.00 91 1019.6
20260502020744 52 17 1.7 2.6 0.00 0.00 0.00 91 1019.6
20260502020644 52 15 0.9 1.7 0.00 0.00 0.00 91 1019.6
20260502020544 52 16 0.9 0.9 0.00 0.00 0.00 91 1019.6
20260502020444 52 15 0.9 1.7 0.00 0.00 0.00 91 1019.6
20260502020344 52 13 1.7 1.7 0.00 0.00 0.00 91 1019.6
20260502020243 52 23 1.7 2.6 0.00 0.00 0.00 91 1019.6
20260502020143 52 3 2.6 2.6 0.00 0.00 0.00 91 1019.6
20260502020043 52 348 1.7 2.6 0.00 0.00 0.00 91 1019.7
20260502015943 52 348 1.7 2.6 0.00 0.00 0.00 91 1019.7
20260502015843 52 330 1.7 2.6 0.00 0.00 0.00 91 1019.7
20260502015743 52 333 1.7 1.7 0.00 0.00 0.00 91 1019.7
20260502015643 52 334 1.7 1.7 0.00 0.00 0.00 91 1019.7
20260502015543 52 333 1.7 1.7 0.00 0.00 0.00 91 1019.7
20260502015443 52 337 1.7 1.7 0.00 0.00 0.00 91 1019.7
20260502015343 52 350 1.7 2.6 0.00 0.00 0.00 91 1019.7
20260502015243 52 357 1.7 2.6 0.00 0.00 0.00 91 1019.7
20260502015143 52 352 1.7 2.6 0.00 0.00 0.00 91 1019.7
20260502015042 52 333 1.7 1.7 0.00 0.00 0.00 91 1019.7
20260502014942 52 325 1.7 2.6 0.00 0.00 0.00 91 1019.7
20260502014842 52 325 1.7 2.6 0.00 0.00 0.00 91 1019.7
20260502014742 52 326 1.7 2.6 0.00 0.00 0.00 91 1019.7
20260502014642 52 325 2.6 2.6 0.00 0.00 0.00 91 1019.7
20260502014542 52 332 2.6 2.6 0.00 0.00 0.00 91 1019.7
20260502014442 52 327 1.7 2.6 0.00 0.00 0.00 91 1019.7
20260502014342 52 327 2.6 2.6 0.00 0.00 0.00 91 1019.8
20260502014242 52 330 2.6 2.6 0.00 0.00 0.00 91 1019.7
20260502014142 52 308 1.7 2.6 0.00 0.00 0.00 91 1019.7
20260502014042 52 308 1.7 2.6 0.00 0.00 0.00 91 1019.8
20260502013942 52 309 1.7 2.6 0.00 0.00 0.00 91 1019.8
20260502013842 52 306 1.7 2.6 0.00 0.00 0.00 91 1019.8
20260502013742 52 308 1.7 2.6 0.00 0.00 0.00 91 1019.8
20260502013642 52 307 1.7 2.6 0.00 0.00 0.00 91 1019.8
20260502013541 52 300 1.7 2.6 0.00 0.00 0.00 91 1019.8
20260502013411 52 294 1.7 2.6 0.00 0.00 0.00 91 1019.8
20260502013311 52 298 1.7 2.6 0.00 0.00 0.00 91 1019.8
20260502013211 52 298 1.7 2.6 0.00 0.00 0.00 91 1019.8
20260502013111 52 298 1.7 2.6 0.00 0.00 0.00 91 1019.8
20260502013011 52 297 1.7 2.6 0.00 0.00 0.00 91 1019.8
20260502012911 52 293 1.7 2.6 0.00 0.00 0.00 91 1019.8
20260502012811 52 291 0.9 1.7 0.00 0.00 0.00 91 1019.8
20260502012711 52 286 0.9 1.7 0.00 0.00 0.00 91 1019.9
20260502012611 52 286 0.9 1.7 0.00 0.00 0.00 91 1019.8
20260502012511 52 300 0.9 1.7 0.00 0.00 0.00 91 1019.8
20260502012411 52 303 1.7 1.7 0.00 0.00 0.00 91 1019.8
20260502012311 52 304 1.7 1.7 0.00 0.00 0.00 91 1019.8
20260502012210 52 293 0.9 1.7 0.00 0.00 0.00 91 1019.8
20260502012110 52 283 0.9 1.7 0.00 0.00 0.00 91 1019.9
20260502012010 52 279 0.9 1.7 0.00 0.00 0.00 91 1019.9
20260502011910 52 273 0.9 1.7 0.00 0.00 0.00 91 1019.9
20260502011810 52 272 0.9 0.9 0.00 0.00 0.00 91 1019.9
20260502011710 52 272 1.7 1.7 0.00 0.00 0.00 91 1019.9
20260502011610 52 281 1.7 2.6 0.00 0.00 0.00 91 1019.9
20260502011510 52 290 0.9 2.6 0.00 0.00 0.00 91 1019.9
20260502011410 52 292 0.9 1.7 0.00 0.00 0.00 91 1019.9
20260502011310 52 289 1.7 2.6 0.00 0.00 0.00 91 1019.9
20260502011210 52 287 1.7 2.6 0.00 0.00 0.00 91 1019.9
20260502011110 52 285 1.7 2.6 0.00 0.00 0.00 91 1019.9
20260502011010 52 281 0.9 2.6 0.00 0.00 0.00 91 1019.8
20260502010910 52 280 1.7 2.6 0.00 0.00 0.00 91 1019.9
20260502010810 52 274 1.7 2.6 0.00 0.00 0.00 91 1019.9
20260502010710 52 282 2.6 2.6 0.00 0.00 0.00 91 1019.8
20260502010610 52 275 2.6 2.6 0.00 0.00 0.00 91 1019.9
20260502010509 52 290 1.7 2.6 0.00 0.00 0.00 91 1019.9
20260502010409 52 284 2.6 2.6 0.00 0.00 0.00 91 1019.9
20260502010309 52 289 2.6 2.6 0.00 0.00 0.00 91 1019.9
20260502010209 52 282 2.6 2.6 0.00 0.00 0.00 91 1019.9
20260502010109 52 287 2.6 4.3 0.00 0.00 0.00 91 1019.9
20260502010009 52 285 4.3 5.2 0.00 0.00 0.00 91 1019.9
20260502005909 52 278 2.6 5.2 0.00 0.00 0.00 91 1019.9
20260502005809 52 283 2.6 2.6 0.00 0.00 0.00 91 1019.9
20260502005709 52 274 2.6 4.3 0.00 0.00 0.00 91 1019.9
20260502005609 52 280 2.6 4.3 0.00 0.00 0.00 91 1019.9
20260502005509 52 273 1.7 4.3 0.00 0.00 0.00 91 1019.9
20260502005409 52 271 1.7 2.6 0.00 0.00 0.00 91 1020.0
20260502005309 52 272 1.7 2.6 0.00 0.00 0.00 91 1020.0
20260502005208 52 268 1.7 2.6 0.00 0.00 0.00 91 1020.0
20260502005108 52 254 0.9 1.7 0.00 0.00 0.00 91 1020.0
20260502005008 52 255 1.7 1.7 0.00 0.00 0.00 91 1020.0
20260502004909 52 249 1.7 2.6 0.00 0.00 0.00 91 1020.1
20260502004808 52 256 1.7 2.6 0.00 0.00 0.00 91 1020.0
20260502004708 52 259 0.9 4.3 0.00 0.00 0.00 91 1020.0
20260502004608 52 261 0.9 1.7 0.00 0.00 0.00 91 1020.0
20260502004508 52 262 1.7 1.7 0.00 0.00 0.00 91 1020.0
20260502004408 52 243 2.6 4.3 0.00 0.00 0.00 91 1020.0
20260502004308 52 263 2.6 4.3 0.00 0.00 0.00 91 1020.0
20260502004208 52 265 2.6 4.3 0.00 0.00 0.00 91 1020.0
20260502004108 52 267 2.6 5.2 0.00 0.00 0.00 91 1020.0
20260502004008 52 268 2.6 6.1 0.00 0.00 0.00 91 1020.0
20260502003907 52 269 2.6 4.3 0.00 0.00 0.00 91 1020.0
20260502003807 52 275 4.3 5.2 0.00 0.00 0.00 91 1020.0
20260502003707 52 282 4.3 5.2 0.00 0.00 0.00 91 1020.0
20260502003607 52 270 4.3 5.2 0.00 0.00 0.00 91 1020.0
20260502003507 52 266 4.3 6.1 0.00 0.00 0.00 91 1020.0
20260502003407 52 277 2.6 5.2 0.00 0.00 0.00 91 1020.0
20260502003307 52 265 4.3 5.2 0.00 0.00 0.00 91 1020.0
20260502003207 52 275 2.6 4.3 0.00 0.00 0.00 91 1020.0
20260502003107 52 261 4.3 6.1 0.00 0.00 0.00 91 1020.0
20260502003007 52 256 2.6 5.2 0.00 0.00 0.00 91 1020.0
20260502002907 52 254 4.3 5.2 0.00 0.00 0.00 91 1020.0
20260502002807 52 257 2.6 5.2 0.00 0.00 0.00 91 1020.1
20260502002707 52 247 1.7 2.6 0.00 0.00 0.00 91 1020.1
20260502002607 52 249 2.6 5.2 0.00 0.00 0.00 91 1020.1
20260502002507 52 256 2.6 4.3 0.00 0.00 0.00 91 1020.1
20260502002406 52 256 2.6 5.2 0.00 0.00 0.00 91 1020.1
20260502002306 52 254 2.6 6.1 0.00 0.00 0.00 91 1020.1
20260502002206 52 248 4.3 5.2 0.00 0.00 0.00 91 1020.1
20260502002106 52 261 2.6 6.1 0.00 0.00 0.00 91 1020.1
20260502002006 52 267 4.3 6.1 0.00 0.00 0.00 91 1020.1
20260502001906 52 260 4.3 5.2 0.00 0.00 0.00 91 1020.2
20260502001806 52 255 4.3 5.2 0.00 0.00 0.00 91 1020.2
20260502001706 52 253 2.6 6.1 0.00 0.00 0.00 91 1020.2
20260502001606 52 254 2.6 5.2 0.00 0.00 0.00 91 1020.2
20260502001506 52 244 2.6 4.3 0.00 0.00 0.00 91 1020.2
20260502001336 52 256 2.6 5.2 0.00 0.00 0.00 91 1020.2
20260502001236 52 251 2.6 2.6 0.00 0.00 0.00 91 1020.3
20260502001106 52 263 1.7 4.3 0.00 0.00 0.00 91 1020.3
20260502000936 52 256 4.3 5.2 0.00 0.00 0.00 91 1020.3
20260502000836 52 251 4.3 7.0 0.00 0.00 0.00 91 1020.3
20260502000736 52 251 4.3 6.1 0.00 0.00 0.00 91 1020.3
20260502000606 52 252 4.3 6.1 0.00 0.00 0.00 91 1020.3
20260502000506 52 253 4.3 6.1 0.00 0.00 0.00 91 1020.3
20260502000406 52 257 4.3 7.0 0.00 0.00 0.00 91 1020.3
20260502000306 52 255 4.3 5.2 0.00 0.00 0.00 91 1020.3
20260502000136 52 259 4.3 4.3 0.00 0.00 0.00 91 1020.3
20260502000036 52 255 2.6 6.1 0.00 0.00 0.00 91 1020.3
20260501235936 52 266 4.3 5.2 0.00 0.00 0.00 91 1020.3
20260501235836 52 256 2.6 7.0 0.00 0.00 0.00 91 1020.3
20260501235736 52 266 2.6 4.3 0.00 0.00 0.00 91 1020.3
20260501235606 52 248 2.6 5.2 0.00 0.00 0.00 91 1020.3
20260501235436 52 248 2.6 4.3 0.00 0.00 0.00 91 1020.3
20260501235306 52 253 2.6 2.6 0.00 0.00 0.00 91 1020.3
20260501235136 52 255 4.3 4.3 0.00 0.00 0.00 91 1020.4
20260501235006 52 258 2.6 7.0 0.00 0.00 0.00 91 1020.4
20260501234906 52 251 2.6 4.3 0.00 0.00 0.00 91 1020.4
20260501234806 52 264 2.6 5.2 0.00 0.00 0.00 91 1020.4
20260501234706 52 251 1.7 4.3 0.00 0.00 0.00 91 1020.4
20260501234536 52 231 2.6 2.6 0.00 0.00 0.00 91 1020.5
20260501234406 52 258 2.6 5.2 0.00 0.00 0.00 91 1020.4
20260501234306 52 229 1.7 2.6 0.00 0.00 0.00 91 1020.4
20260501234206 52 229 1.7 2.6 0.00 0.00 0.00 91 1020.5
20260501234106 52 242 1.7 2.6 0.00 0.00 0.00 91 1020.5
20260501234006 52 258 2.6 4.3 0.00 0.00 0.00 91 1020.5
20260501233906 52 252 1.7 2.6 0.00 0.00 0.00 91 1020.5
20260501233736 52 269 2.6 4.3 0.00 0.00 0.00 91 1020.6
20260501233606 52 239 1.7 2.6 0.00 0.00 0.00 91 1020.6
20260501233506 52 253 1.7 4.3 0.00 0.00 0.00 91 1020.5
20260501233406 52 245 1.7 4.3 0.00 0.00 0.00 91 1020.6
20260501233306 52 248 1.7 2.6 0.00 0.00 0.00 91 1020.6
20260501233206 52 257 2.6 2.6 0.00 0.00 0.00 91 1020.6
20260501233036 52 250 2.6 4.3 0.00 0.00 0.00 91 1020.6
20260501232936 52 253 1.7 4.3 0.00 0.00 0.00 91 1020.6
20260501232806 52 267 1.7 2.6 0.00 0.00 0.00 91 1020.6
20260501232636 52 233 1.7 2.6 0.00 0.00 0.00 91 1020.6
20260501232536 52 253 1.7 2.6 0.00 0.00 0.00 91 1020.6
20260501232406 52 229 1.7 2.6 0.00 0.00 0.00 91 1020.6
20260501232306 52 265 2.6 2.6 0.00 0.00 0.00 91 1020.6
20260501232206 52 251 1.7 2.6 0.00 0.00 0.00 91 1020.6
20260501232106 52 237 1.7 4.3 0.00 0.00 0.00 91 1020.6
20260501231936 52 263 2.6 5.2 0.00 0.00 0.00 91 1020.6
20260501231806 52 243 2.6 4.3 0.00 0.00 0.00 91 1020.6
20260501231706 52 253 1.7 2.6 0.00 0.00 0.00 91 1020.6
20260501231606 52 241 2.6 4.3 0.00 0.00 0.00 91 1020.6
20260501231506 52 262 4.3 4.3 0.00 0.00 0.00 91 1020.6
20260501231336 52 236 2.6 6.1 0.00 0.00 0.00 91 1020.6
20260501231206 52 256 4.3 5.2 0.00 0.00 0.00 91 1020.6
20260501231106 52 251 1.7 5.2 0.00 0.00 0.00 91 1020.6
20260501231006 52 244 1.7 1.7 0.00 0.00 0.00 91 1020.7
20260501230906 52 251 2.6 4.3 0.00 0.00 0.00 91 1020.6
20260501230806 52 242 2.6 5.2 0.00 0.00 0.00 91 1020.7
20260501230636 52 238 1.7 5.2 0.00 0.00 0.00 91 1020.6
20260501230536 52 262 2.6 2.6 0.00 0.00 0.00 91 1020.6
20260501230406 52 260 2.6 4.3 0.00 0.00 0.00 91 1020.7
20260501230236 52 261 1.7 4.3 0.00 0.00 0.00 91 1020.7
20260501230136 52 252 4.3 4.3 0.00 0.00 0.00 91 1020.7
20260501230036 52 263 4.3 6.1 0.00 0.00 0.00 91 1020.7
20260501225936 52 245 4.3 6.1 0.00 0.00 0.00 91 1020.7
20260501225806 52 255 4.3 6.1 0.00 0.00 0.00 91 1020.7
20260501225636 52 253 4.3 6.1 0.00 0.00 0.00 91 1020.7
20260501225506 52 255 2.6 6.1 0.00 0.00 0.00 91 1020.7
20260501225406 52 237 2.6 4.3 0.00 0.00 0.00 91 1020.7
20260501225306 52 256 4.3 6.1 0.00 0.00 0.00 91 1020.7
20260501225136 52 258 2.6 4.3 0.00 0.00 0.00 91 1020.8
20260501225036 52 255 4.3 7.0 0.00 0.00 0.00 91 1020.7
20260501224906 52 254 2.6 5.2 0.00 0.00 0.00 91 1020.8
20260501224806 52 246 4.3 7.0 0.00 0.00 0.00 91 1020.7
20260501224706 52 252 4.3 6.1 0.00 0.00 0.00 91 1020.8
20260501224536 52 261 4.3 5.2 0.00 0.00 0.00 91 1020.7
20260501224436 52 265 4.3 8.7 0.00 0.00 0.00 91 1020.8
20260501224336 52 251 5.2 7.8 0.00 0.00 0.00 91 1020.8
20260501224205 52 252 2.6 7.8 0.00 0.00 0.00 91 1020.7
20260501224105 52 229 2.6 6.1 0.00 0.00 0.00 91 1020.7
20260501224005 52 240 2.6 5.2 0.00 0.00 0.00 91 1020.7
20260501223905 52 216 1.7 5.2 0.00 0.00 0.00 91 1020.7
20260501223806 52 256 1.7 2.6 0.00 0.00 0.00 91 1020.7
20260501223705 52 235 1.7 2.6 0.00 0.00 0.00 91 1020.7
20260501223535 52 255 2.6 6.1 0.00 0.00 0.00 91 1020.7
20260501223436 52 255 4.3 5.2 0.00 0.00 0.00 91 1020.7
20260501223305 52 252 4.3 7.0 0.00 0.00 0.00 91 1020.8
20260501223135 52 231 1.7 5.2 0.00 0.00 0.00 91 1020.7
20260501223035 52 217 2.6 2.6 0.00 0.00 0.00 91 1020.8
20260501222935 52 250 4.3 4.3 0.00 0.00 0.00 91 1020.8
20260501222835 52 256 2.6 5.2 0.00 0.00 0.00 91 1020.8
20260501222735 52 241 2.6 7.0 0.00 0.00 0.00 91 1020.8
20260501222635 52 227 1.7 2.6 0.00 0.00 0.00 91 1020.8
20260501222535 52 220 2.6 2.6 0.00 0.00 0.00 91 1020.8
20260501222405 52 237 2.6 5.2 0.00 0.00 0.00 91 1020.8
20260501222306 52 241 2.6 2.6 0.00 0.00 0.00 91 1020.8
20260501222205 52 257 5.2 7.0 0.00 0.00 0.00 91 1020.8
20260501222035 52 252 4.3 2.6 0.00 0.00 0.00 91 1020.9
20260501221935 52 263 4.3 5.2 0.00 0.00 0.00 91 1020.9
20260501221835 52 254 2.6 5.2 0.00 0.00 0.00 91 1020.9
20260501221735 52 213 1.7 2.6 0.00 0.00 0.00 91 1020.9
20260501221635 52 260 2.6 5.2 0.00 0.00 0.00 91 1020.9
20260501221505 52 229 4.3 6.1 0.00 0.00 0.00 91 1020.9
20260501221405 52 234 2.6 7.0 0.00 0.00 0.00 91 1020.9
20260501221305 52 219 1.7 4.3 0.00 0.00 0.00 91 1020.9
20260501221205 52 256 2.6 4.3 0.00 0.00 0.00 91 1020.9
20260501221035 52 212 1.7 2.6 0.00 0.00 0.00 91 1020.9
20260501220935 52 214 1.7 2.6 0.00 0.00 0.00 91 1021.0
20260501220805 52 243 4.3 6.1 0.00 0.00 0.00 91 1021.0
20260501220635 52 203 2.6 4.3 0.00 0.00 0.00 91 1020.9
20260501220505 52 228 2.6 2.6 0.00 0.00 0.00 91 1020.9
20260501220335 52 234 4.3 6.1 0.00 0.00 0.00 91 1020.9
20260501220205 52 260 2.6 5.2 0.00 0.00 0.00 91 1021.0
20260501220105 52 253 2.6 7.0 0.00 0.00 0.00 91 1021.0
20260501220005 52 223 1.7 4.3 0.00 0.00 0.00 91 1021.0
20260501215905 52 234 1.7 4.3 0.00 0.00 0.00 91 1021.0
20260501215735 52 218 2.6 6.1 0.00 0.00 0.00 91 1021.0
20260501215605 52 230 4.3 6.1 0.00 0.00 0.00 91 1020.9
20260501215505 52 240 4.3 7.0 0.00 0.00 0.00 91 1021.0
20260501215405 52 254 5.2 7.0 0.00 0.00 0.00 91 1021.0
20260501215235 52 227 2.6 5.2 0.00 0.00 0.00 91 1021.0
20260501215135 52 238 4.3 6.1 0.00 0.00 0.00 91 1021.0
20260501215005 52 259 4.3 6.1 0.00 0.00 0.00 91 1020.9
20260501214835 52 259 2.6 5.2 0.00 0.00 0.00 91 1021.0
20260501214736 52 241 2.6 5.2 0.00 0.00 0.00 91 1021.0
20260501214635 52 246 2.6 5.2 0.00 0.00 0.00 91 1021.0
20260501214505 52 211 4.3 4.3 0.00 0.00 0.00 91 1021.0
20260501214405 52 221 4.3 7.0 0.00 0.00 0.00 91 1020.9
20260501214305 52 237 4.3 5.2 0.00 0.00 0.00 91 1021.0
20260501214205 52 245 5.2 7.0 0.00 0.00 0.00 91 1020.9
20260501214035 52 239 4.3 2.6 0.00 0.00 0.00 91 1021.0
20260501213935 52 254 2.6 7.0 0.00 0.00 0.00 91 1021.0
20260501213835 52 263 2.6 5.2 0.00 0.00 0.00 91 1020.9
20260501213705 52 249 1.7 4.3 0.00 0.00 0.00 91 1020.9
20260501213605 52 222 2.6 2.6 0.00 0.00 0.00 91 1020.9
20260501213505 52 267 4.3 7.8 0.00 0.00 0.00 91 1021.0
20260501213335 52 259 5.2 5.2 0.00 0.00 0.00 91 1020.9
20260501213235 52 254 5.2 7.0 0.00 0.00 0.00 91 1020.9
20260501213105 52 259 2.6 6.1 0.00 0.00 0.00 91 1020.9
20260501213005 52 231 2.6 5.2 0.00 0.00 0.00 91 1020.9
20260501212905 52 244 4.3 7.0 0.00 0.00 0.00 91 1020.9
20260501212735 52 265 6.1 10.4 0.00 0.00 0.00 91 1020.9
20260501212635 52 261 6.1 8.7 0.00 0.00 0.00 90 1020.9
20260501212535 52 263 6.1 7.8 0.00 0.00 0.00 90 1020.9
20260501212435 52 255 5.2 7.0 0.00 0.00 0.00 90 1021.0
20260501212335 52 256 5.2 7.0 0.00 0.00 0.00 90 1020.9
20260501212235 52 235 4.3 7.0 0.00 0.00 0.00 90 1021.0
20260501212135 52 238 2.6 6.1 0.00 0.00 0.00 90 1021.0
20260501212005 52 239 2.6 2.6 0.00 0.00 0.00 90 1021.0
20260501211905 52 259 6.1 8.7 0.00 0.00 0.00 90 1021.0
20260501211805 52 247 5.2 8.7 0.00 0.00 0.00 90 1021.0
20260501211635 52 250 6.1 7.8 0.00 0.00 0.00 90 1020.9
20260501211535 52 257 5.2 8.7 0.00 0.00 0.00 90 1021.0
20260501211405 52 227 5.2 7.0 0.00 0.00 0.00 90 1020.9
20260501211235 52 250 5.2 6.1 0.00 0.00 0.00 90 1021.0
20260501211105 52 231 5.2 7.0 0.00 0.00 0.00 90 1021.0
20260501211005 52 230 4.3 7.8 0.00 0.00 0.00 90 1020.9
20260501210905 52 211 2.6 6.1 0.00 0.00 0.00 90 1021.0
20260501210805 52 235 4.3 7.0 0.00 0.00 0.00 90 1021.0
20260501210635 52 249 2.6 4.3 0.00 0.00 0.00 90 1020.9
20260501210535 52 251 4.3 7.0 0.00 0.00 0.00 90 1020.9
20260501210405 52 242 2.6 4.3 0.00 0.00 0.00 90 1020.9
20260501210235 52 234 5.2 7.0 0.00 0.00 0.00 90 1020.9
20260501210135 52 216 4.3 7.0 0.00 0.00 0.00 90 1020.9
20260501210035 52 231 5.2 7.8 0.00 0.00 0.00 90 1020.9
20260501205935 52 245 4.3 7.0 0.00 0.00 0.00 90 1020.9
20260501205805 52 234 4.3 5.2 0.00 0.00 0.00 90 1020.9
20260501205705 52 209 4.3 6.1 0.00 0.00 0.00 90 1020.9
20260501205535 52 216 4.3 4.3 0.00 0.00 0.00 90 1020.9
20260501205435 52 224 5.2 7.0 0.00 0.00 0.00 90 1020.9
20260501205335 52 244 4.3 7.0 0.00 0.00 0.00 90 1020.9
20260501205205 52 223 6.1 7.0 0.00 0.00 0.00 90 1020.9
20260501205035 52 239 2.6 6.1 0.00 0.00 0.00 90 1020.9
20260501204905 52 224 4.3 6.1 0.00 0.00 0.00 90 1020.9
20260501204805 52 234 4.3 5.2 0.00 0.00 0.00 90 1020.9
20260501204635 52 219 2.6 5.2 0.00 0.00 0.00 90 1020.9
20260501204505 52 239 4.3 6.1 0.00 0.00 0.00 90 1020.9
20260501204335 52 225 4.3 5.2 0.00 0.00 0.00 89 1020.9
20260501204235 52 219 2.6 6.1 0.00 0.00 0.00 89 1020.9
20260501204135 52 221 1.7 5.2 0.00 0.00 0.00 89 1020.9
20260501204005 52 209 4.3 5.2 0.00 0.00 0.00 89 1020.9
20260501203835 52 233 4.3 6.1 0.00 0.00 0.00 89 1020.9
20260501203735 52 225 4.3 5.2 0.00 0.00 0.00 89 1020.9
20260501203635 52 239 2.6 5.2 0.00 0.00 0.00 89 1020.9
20260501203535 52 231 2.6 2.6 0.00 0.00 0.00 89 1020.9
20260501203435 52 218 2.6 4.3 0.00 0.00 0.00 89 1020.9
20260501203335 52 208 1.7 2.6 0.00 0.00 0.00 89 1020.9
20260501203235 52 203 2.6 2.6 0.00 0.00 0.00 89 1020.8
20260501203105 52 226 2.6 5.2 0.00 0.00 0.00 89 1020.8
20260501202935 52 211 1.7 4.3 0.00 0.00 0.00 89 1020.8
20260501202805 52 201 1.7 2.6 0.00 0.00 0.00 89 1020.7
20260501202705 53 206 2.6 2.6 0.00 0.00 0.00 89 1020.8
20260501202605 53 220 4.3 2.6 0.00 0.00 0.00 89 1020.7
20260501202435 53 220 2.6 2.6 0.00 0.00 0.00 89 1020.8
20260501202335 53 209 2.6 2.6 0.00 0.00 0.00 89 1020.8
20260501202235 53 211 2.6 4.3 0.00 0.00 0.00 89 1020.8
20260501202105 53 213 1.7 2.6 0.00 0.00 0.00 89 1020.8
20260501201935 53 207 1.7 2.6 0.00 0.00 0.00 89 1020.8
20260501201835 53 228 1.7 4.3 0.00 0.00 0.00 89 1020.7
20260501201735 53 234 2.6 2.6 0.00 0.00 0.00 89 1020.8
20260501201605 53 261 2.6 4.3 0.00 0.00 0.00 89 1020.8
20260501201435 53 237 1.7 2.6 0.00 0.00 0.00 89 1020.8
20260501201305 53 243 2.6 2.6 0.00 0.00 0.00 89 1020.8
20260501201205 53 257 0.9 2.6 0.00 0.00 0.00 89 1020.8
20260501201105 53 253 1.7 2.6 0.00 0.00 0.00 89 1020.8
20260501201005 53 261 1.7 4.3 0.00 0.00 0.00 89 1020.8
20260501200905 53 262 1.7 2.6 0.00 0.00 0.00 89 1020.8
20260501200805 53 258 1.7 2.6 0.00 0.00 0.00 89 1020.8
20260501200635 53 273 2.6 5.2 0.00 0.00 0.00 89 1020.7
20260501200535 53 256 4.3 5.2 0.00 0.00 0.00 89 1020.8
20260501200435 53 267 1.7 4.3 0.00 0.00 0.00 89 1020.7
20260501200335 53 264 2.6 4.3 0.00 0.00 0.00 89 1020.7
20260501200205 53 252 2.6 4.3 0.00 0.00 0.00 89 1020.7
20260501200105 53 278 2.6 2.6 0.00 0.00 0.00 89 1020.8
20260501200005 53 260 2.6 5.2 0.00 0.00 0.00 89 1020.7
20260501195835 53 269 1.7 2.6 0.00 0.00 0.00 89 1020.7
20260501195735 53 272 1.7 2.6 0.00 0.00 0.00 89 1020.7
20260501195635 53 271 1.7 2.6 0.00 0.00 0.00 89 1020.7
20260501195535 53 273 2.6 2.6 0.00 0.00 0.00 89 1020.7
20260501195435 53 252 2.6 6.1 0.00 0.00 0.00 89 1020.7
20260501195306 53 268 4.3 4.3 0.00 0.00 0.00 88 1020.7
20260501195135 53 275 2.6 4.3 0.00 0.00 0.00 88 1020.7
20260501195035 53 277 2.6 4.3 0.00 0.00 0.00 88 1020.7
20260501194935 53 280 2.6 5.2 0.00 0.00 0.00 88 1020.7
20260501194805 53 273 1.7 5.2 0.00 0.00 0.00 88 1020.7
20260501194705 53 280 2.6 2.6 0.00 0.00 0.00 88 1020.7
20260501194605 53 283 1.7 2.6 0.00 0.00 0.00 88 1020.7
20260501194505 53 257 1.7 2.6 0.00 0.00 0.00 88 1020.7
20260501194405 53 260 1.7 2.6 0.00 0.00 0.00 88 1020.7
20260501194305 53 266 1.7 4.3 0.00 0.00 0.00 88 1020.7
20260501194205 53 271 1.7 2.6 0.00 0.00 0.00 88 1020.7
20260501194035 53 274 2.6 4.3 0.00 0.00 0.00 88 1020.7
20260501193905 53 265 4.3 4.3 0.00 0.00 0.00 88 1020.7
20260501193735 52 274 2.6 2.6 0.00 0.00 0.00 88 1020.7
20260501193605 53 271 2.6 4.3 0.00 0.00 0.00 88 1020.7
20260501193435 52 258 1.7 2.6 0.00 0.00 0.00 88 1020.7
20260501193305 52 273 2.6 2.6 0.00 0.00 0.00 88 1020.7
20260501193205 52 277 2.6 4.3 0.00 0.00 0.00 88 1020.7
20260501193035 52 285 1.7 4.3 0.00 0.00 0.00 88 1020.7
20260501192905 53 286 1.7 2.6 0.00 0.00 0.00 88 1020.7
20260501192735 53 296 2.6 2.6 0.00 0.00 0.00 88 1020.7
20260501192605 53 292 2.6 4.3 0.00 0.00 0.00 88 1020.7
20260501192505 53 300 2.6 2.6 0.00 0.00 0.00 87 1020.7
20260501192405 53 299 1.7 4.3 0.00 0.00 0.00 87 1020.6
20260501192235 53 285 2.6 5.2 0.00 0.00 0.00 87 1020.6
20260501192105 53 287 2.6 4.3 0.00 0.00 0.00 87 1020.6
20260501192005 53 277 1.7 4.3 0.00 0.00 0.00 87 1020.7
20260501191905 53 288 1.7 2.6 0.00 0.00 0.00 87 1020.7
20260501191805 53 277 2.6 4.3 0.00 0.00 0.00 87 1020.6
20260501191705 53 279 2.6 5.2 0.00 0.00 0.00 87 1020.7
20260501191605 53 270 2.6 2.6 0.00 0.00 0.00 87 1020.6
20260501191435 53 266 2.6 4.3 0.00 0.00 0.00 87 1020.6
20260501191335 53 266 2.6 4.3 0.00 0.00 0.00 87 1020.6
20260501191235 53 250 2.6 5.2 0.00 0.00 0.00 87 1020.6
20260501191135 53 271 2.6 4.3 0.00 0.00 0.00 87 1020.6
20260501191035 53 265 2.6 4.3 0.00 0.00 0.00 87 1020.6
20260501190935 53 275 2.6 6.1 0.00 0.00 0.00 87 1020.6
20260501190835 53 269 2.6 2.6 0.00 0.00 0.00 87 1020.6
20260501190705 53 274 2.6 4.3 0.00 0.00 0.00 87 1020.6
20260501190605 53 276 1.7 2.6 0.00 0.00 0.00 87 1020.6
20260501190505 53 282 1.7 4.3 0.00 0.00 0.00 87 1020.6
20260501190405 53 285 2.6 2.6 0.00 0.00 0.00 87 1020.6
20260501190235 53 291 4.3 4.3 0.00 0.00 0.00 87 1020.6
20260501190135 53 277 2.6 4.3 0.00 0.00 0.00 86 1020.6
20260501190035 53 285 2.6 2.6 0.00 0.00 0.00 86 1020.6
20260501185935 53 292 2.6 4.3 0.00 0.00 0.00 86 1020.6
20260501185805 53 294 2.6 4.3 0.00 0.00 0.00 86 1020.6
20260501185705 53 301 2.6 4.3 0.00 0.00 0.00 86 1020.6
20260501185605 53 303 2.6 4.3 0.00 0.00 0.00 86 1020.6
20260501185505 53 296 2.6 4.3 0.00 0.00 0.00 86 1020.6
20260501185335 53 287 4.3 5.2 0.00 0.00 0.00 85 1020.6
20260501185235 53 281 2.6 5.2 0.00 0.00 0.00 86 1020.6
20260501185105 53 279 2.6 4.3 0.00 0.00 0.00 86 1020.6
20260501185005 53 292 1.7 4.3 0.00 0.00 0.00 85 1020.6
20260501184905 53 278 1.7 2.6 0.00 0.00 0.00 86 1020.5
20260501184735 54 290 2.6 2.6 0.00 0.00 0.00 85 1020.6
20260501184605 54 266 2.6 4.3 0.00 0.00 0.00 85 1020.6
20260501184505 54 285 1.7 2.6 0.00 0.00 0.00 85 1020.6
20260501184335 54 253 2.6 4.3 0.00 0.00 0.00 85 1020.6
20260501184235 54 264 1.7 4.3 0.00 0.00 0.00 85 1020.6
20260501184135 54 260 2.6 2.6 0.00 0.00 0.00 85 1020.6
20260501184005 54 279 2.6 2.6 0.00 0.00 0.00 85 1020.6
20260501183905 54 263 2.6 4.3 0.00 0.00 0.00 85 1020.6
20260501183805 54 263 1.7 4.3 0.00 0.00 0.00 85 1020.6
20260501183705 54 257 1.7 5.2 0.00 0.00 0.00 85 1020.6
20260501183535 54 270 2.6 5.2 0.00 0.00 0.00 85 1020.6
20260501183435 54 264 1.7 5.2 0.00 0.00 0.00 85 1020.5
20260501183305 54 263 2.6 2.6 0.00 0.00 0.00 85 1020.5
20260501183135 54 264 4.3 5.2 0.00 0.00 0.00 85 1020.5
20260501183035 54 271 2.6 5.2 0.00 0.00 0.00 85 1020.5
20260501182934 54 275 1.7 2.6 0.00 0.00 0.00 85 1020.5
20260501182835 54 271 1.7 2.6 0.00 0.00 0.00 85 1020.5
20260501182705 53 275 2.6 2.6 0.00 0.00 0.00 85 1020.5
20260501182535 53 277 2.6 4.3 0.00 0.00 0.00 85 1020.5
20260501182435 53 266 4.3 5.2 0.00 0.00 0.00 85 1020.5
20260501182306 53 275 2.6 6.1 0.00 0.00 0.00 85 1020.4
20260501182135 53 271 2.6 5.2 0.00 0.00 0.00 85 1020.5
20260501182035 53 275 2.6 4.3 0.00 0.00 0.00 85 1020.5
20260501181904 53 273 2.6 4.3 0.00 0.00 0.00 85 1020.5
20260501181735 54 264 4.3 4.3 0.00 0.00 0.00 84 1020.5
20260501181635 54 266 2.6 5.2 0.00 0.00 0.00 84 1020.5
20260501181504 54 270 2.6 5.2 0.00 0.00 0.00 84 1020.5
20260501181334 54 267 4.3 4.3 0.00 0.00 0.00 84 1020.5
20260501181234 54 278 4.3 6.1 0.00 0.00 0.00 84 1020.6
20260501181104 54 262 2.6 4.3 0.00 0.00 0.00 84 1020.6
20260501181004 54 263 2.6 4.3 0.00 0.00 0.00 84 1020.6
20260501180834 54 258 1.7 2.6 0.00 0.00 0.00 84 1020.6
20260501180704 54 219 2.6 2.6 0.00 0.00 0.00 83 1020.6
20260501180604 54 262 1.7 5.2 0.00 0.00 0.00 84 1020.6
20260501180504 54 237 1.7 2.6 0.00 0.00 0.00 83 1020.6
20260501180404 54 264 4.3 5.2 0.00 0.00 0.00 83 1020.6
20260501180234 54 259 4.3 7.8 0.00 0.00 0.00 83 1020.6
20260501180104 54 256 2.6 6.1 0.00 0.00 0.00 83 1020.6
20260501180005 54 254 2.6 4.3 0.00 0.00 0.00 83 1020.6
20260501175904 54 268 4.3 4.3 0.00 0.00 0.00 83 1020.6
20260501175804 54 266 2.6 5.2 0.00 0.00 0.00 83 1020.6
20260501175634 54 270 2.6 4.3 0.00 0.00 0.00 83 1020.6
20260501175534 54 266 2.6 5.2 0.00 0.00 0.00 83 1020.6
20260501175434 54 273 4.3 5.2 0.00 0.00 0.00 82 1020.5
20260501175334 54 280 5.2 6.1 0.00 0.00 0.00 82 1020.5
20260501175204 54 270 4.3 7.0 0.00 0.00 0.00 82 1020.6
20260501175104 54 255 4.3 4.3 0.00 0.00 0.00 82 1020.6
20260501174934 55 268 4.3 5.2 0.00 0.00 0.00 82 1020.5
20260501174834 55 276 2.6 6.1 0.00 0.00 0.00 82 1020.5
20260501174734 55 267 4.3 5.2 0.00 0.00 0.00 82 1020.5
20260501174634 55 269 2.6 5.2 0.00 0.00 0.00 82 1020.5
20260501174534 55 273 2.6 5.2 0.00 0.00 0.00 82 1020.4
20260501174404 55 269 4.3 4.3 0.00 0.00 0.00 82 1020.4
20260501174234 55 264 2.6 2.6 0.00 0.00 0.00 82 1020.5
20260501174134 55 261 4.3 6.1 0.00 0.00 0.00 81 1020.5
20260501174034 55 246 2.6 5.2 0.00 0.00 0.00 81 1020.5
20260501173904 55 267 4.3 6.1 0.00 0.00 0.00 81 1020.5
20260501173804 55 268 4.3 7.0 0.00 0.00 0.00 81 1020.5
20260501173634 55 269 2.6 6.1 0.00 0.00 0.00 81 1020.5
20260501173534 55 252 4.3 6.1 0.00 0.00 0.00 81 1020.4
20260501173404 55 257 2.6 6.1 0.00 0.00 0.00 81 1020.4
20260501173304 55 256 2.6 2.6 0.00 0.00 0.00 81 1020.4
20260501173204 55 249 4.3 5.2 0.00 0.00 0.00 80 1020.4
20260501173034 55 268 4.3 6.1 0.00 0.00 0.00 80 1020.4
20260501172904 56 272 2.6 4.3 0.00 0.00 0.00 80 1020.4
20260501172804 56 269 4.3 5.2 0.00 0.00 0.00 79 1020.4
20260501172704 56 253 2.6 6.1 0.00 0.00 0.00 80 1020.4
20260501172604 56 227 2.6 4.3 0.00 0.00 0.00 80 1020.4
20260501172434 56 212 2.6 2.6 0.00 0.00 0.00 80 1020.4
20260501172334 56 199 2.6 5.2 0.00 0.00 0.00 80 1020.4
20260501172204 56 250 2.6 4.3 0.00 0.00 0.00 80 1020.5
20260501172104 56 212 2.6 5.2 0.00 0.00 0.00 80 1020.5
20260501172004 56 230 2.6 4.3 0.00 0.00 0.00 80 1020.5
20260501171904 56 196 2.6 4.3 0.00 0.00 0.00 80 1020.5
20260501171734 56 213 2.6 6.1 0.00 0.00 0.00 80 1020.5
20260501171634 56 202 2.6 2.6 0.00 0.00 0.00 80 1020.5
20260501171534 56 217 2.6 4.3 0.00 0.00 0.00 80 1020.5
20260501171434 56 204 2.6 4.3 0.00 0.00 0.00 81 1020.5
20260501171334 56 224 1.7 2.6 0.00 0.00 0.00 81 1020.6
20260501171234 55 236 1.7 2.6 0.00 0.00 0.00 80 1020.5
20260501171134 55 257 2.6 6.1 0.00 0.00 0.00 80 1020.5
20260501171034 55 220 2.6 4.3 0.00 0.00 0.00 80 1020.6
20260501170904 55 238 2.6 4.3 0.00 0.00 0.00 80 1020.5
20260501170734 56 253 4.3 7.0 0.00 0.00 0.00 79 1020.5
20260501170634 56 226 2.6 5.2 0.00 0.00 0.00 80 1020.5
20260501170534 56 227 2.6 4.3 0.00 0.00 0.00 79 1020.5
20260501170404 56 237 4.3 4.3 0.00 0.00 0.00 79 1020.5
20260501170304 56 224 2.6 6.1 0.00 0.00 0.00 80 1020.5
20260501170134 56 216 4.3 4.3 0.00 0.00 0.00 79 1020.5
20260501170034 56 219 4.3 6.1 0.00 0.00 0.00 79 1020.5
20260501165934 56 229 2.6 6.1 0.00 0.00 0.00 80 1020.5
20260501165804 56 212 1.7 4.3 0.00 0.00 0.00 80 1020.5
20260501165704 56 232 2.6 4.3 0.00 0.00 0.00 80 1020.5
20260501165604 56 221 2.6 4.3 0.00 0.00 0.00 80 1020.5
20260501165504 56 210 2.6 5.2 0.00 0.00 0.00 80 1020.5
20260501165404 56 230 4.3 5.2 0.00 0.00 0.00 79 1020.5
20260501165234 56 240 2.6 6.1 0.00 0.00 0.00 80 1020.5
20260501165134 56 211 4.3 5.2 0.00 0.00 0.00 79 1020.5
20260501165034 56 239 4.3 6.1 0.00 0.00 0.00 79 1020.5
20260501164934 56 223 4.3 7.0 0.00 0.00 0.00 79 1020.6
20260501164834 56 229 4.3 7.0 0.00 0.00 0.00 80 1020.6
20260501164704 56 217 2.6 4.3 0.00 0.00 0.00 79 1020.6
20260501164604 56 214 2.6 5.2 0.00 0.00 0.00 80 1020.6
20260501164504 56 224 4.3 5.2 0.00 0.00 0.00 80 1020.6
20260501164334 56 242 4.3 5.2 0.00 0.00 0.00 79 1020.6
20260501164234 56 235 4.3 5.2 0.00 0.00 0.00 79 1020.6
20260501164134 56 218 4.3 7.0 0.00 0.00 0.00 79 1020.6
20260501164034 56 217 5.2 7.0 0.00 0.00 0.00 79 1020.7
20260501163934 56 237 4.3 7.0 0.00 0.00 0.00 79 1020.7
20260501163804 56 211 4.3 7.0 0.00 0.00 0.00 79 1020.7
20260501163634 56 216 2.6 4.3 0.00 0.00 0.00 80 1020.7
20260501163504 56 227 4.3 4.3 0.00 0.00 0.00 79 1020.7
20260501163334 56 213 4.3 7.8 0.00 0.00 0.00 79 1020.6
20260501163234 56 224 4.3 7.0 0.00 0.00 0.00 79 1020.6
20260501163134 56 213 2.6 5.2 0.00 0.00 0.00 80 1020.7
20260501163004 56 219 4.3 5.2 0.00 0.00 0.00 79 1020.7
20260501162904 56 248 4.3 7.0 0.00 0.00 0.00 80 1020.7
20260501162804 56 202 2.6 5.2 0.00 0.00 0.00 80 1020.7
20260501162704 56 202 4.3 5.2 0.00 0.00 0.00 80 1020.7
20260501162534 56 231 4.3 7.0 0.00 0.00 0.00 80 1020.7
20260501162404 56 194 4.3 4.3 0.00 0.00 0.00 80 1020.7
20260501162306 56 230 5.2 7.0 0.00 0.00 0.00 79 1020.7
20260501162134 56 218 4.3 4.3 0.00 0.00 0.00 80 1020.7
20260501162034 56 232 4.3 7.0 0.00 0.00 0.00 80 1020.7
20260501161934 56 208 5.2 6.1 0.00 0.00 0.00 79 1020.7
20260501161804 56 241 5.2 7.0 0.00 0.00 0.00 79 1020.7
20260501161704 56 241 5.2 7.8 0.00 0.00 0.00 80 1020.7
20260501161534 56 222 4.3 6.1 0.00 0.00 0.00 80 1020.7
20260501161434 56 217 4.3 4.3 0.00 0.00 0.00 80 1020.8